AirNav   Air Wisconsin Up To $57,000 Bonus
 
 290 users online  

5W4 P K Airpark
Raeford, North Carolina, USA

GOING TO RAEFORD?


FAA INFORMATION EFFECTIVE 26 MARCH 2020

Location

FAA Identifier: 5W4
Lat/Long: 35-01-11.4950N 079-11-27.6140W
35-01.191583N 079-11.460233W
35.0198597,-79.1910039
(estimated)
Elevation: 304 ft. / 92.7 m (surveyed)
Variation: 09W (2020)
From city: 3 miles NE of RAEFORD, NC
Time zone: UTC -4 (UTC -5 during Standard Time)
Zip code: 28376

Airport Operations

Airport use: Open to the public
Activation date: 05/1964
Control tower: no
ARTCC: WASHINGTON CENTER
FSS: RALEIGH FLIGHT SERVICE STATION
NOTAMs facility: RDU (NOTAM-D service available)
Attendance: 0830-DUSK
Wind indicator: lighted
Segmented circle: yes
Beacon: white-green (lighted land airport)
Operates sunset to sunrise.

Airport Communications

CTAF/UNICOM: 123.0
FAYETTEVILLE APPROACH: 127.8
FAYETTEVILLE DEPARTURE: 127.8
WX ASOS at FAY (15 nm E): 121.25 (910-484-1546)
WX ASOS at MEB (16 nm SW): 134.125 (910-844-5338)
WX AWOS-3PT at SOP (16 nm NW): 127.575 (910-692-4287)

Nearby radio navigation aids

VOR radial/distance  VOR name  Freq  Var
FAYr282/15.7FAYETTEVILLE VOR/DME108.8004W
SDZr124/22.7SANDHILLS VORTAC111.8003W

 
NDB name  Hdg/Dist  Freq  Var  ID
MACKALL098/14.527806WHFF .... ..-. ..-.
POPE230/17.033807WPOB .--. --- -...
FORT BRAGG256/19.939307WFGP ..-. --. .--.
ROBESON353/25.235908WRSY .-. ... -.--
DILLON023/35.327409WDLC -.. .-.. -.-.
HARNETT234/35.441708WHQT .... --.- -
BENNETTSVILLE056/35.923008WBES -... . ...

Airport Services

Fuel available: 100LL JET-A+
Parking: tiedowns
Airframe service: NONE
Powerplant service: NONE
Bottled oxygen: NONE
Bulk oxygen: NONE

Runway Information

Runway 4/22

Dimensions: 3402 x 60 ft. / 1037 x 18 m
Surface: asphalt, in excellent condition
Weight bearing capacity: 
Single wheel: 30.0
Runway edge lights: medium intensity
RUNWAY 4  RUNWAY 22
Latitude: 35-00.956983N35-01.426050N
Longitude: 079-11.647300W079-11.273650W
Elevation: 292.0 ft.304.0 ft.
Traffic pattern: leftright
Runway heading: 042 magnetic, 033 true222 magnetic, 213 true
Markings: nonprecision, in good conditionnonprecision, in good condition
Touchdown point: yes, no lightsyes, no lights
Obstructions: 38 ft. trees, 427 ft. from runway, 97 ft. left of centerline, 5:1 slope to clear49 ft. trees, 367 ft. from runway, 138 ft. right of centerline, 3:1 slope to clear
HAS 3 FT BRUSH 0-200 FT FM THLD OFFSET 118 FT R OF CNTRLN.

Airport Ownership and Management from official FAA records

Ownership: Privately-owned
Owner: BILLIE THACKER
PO DRAWER 1510
RAEFORD, NC 28376
Phone 910-875-3261
Manager: JOEY D'ANNUNZIO
155 AIRPORT DRIVE
RAEFORD, NC 28376
Phone (910) 904-0000

Airport Operational Statistics

Aircraft based on the field: 8
Single engine airplanes: 2
Multi engine airplanes: 6
    
Aircraft operations: avg 64/day *
77% local general aviation
21% military
2% transient general aviation
* for 12-month period ending 11 June 2019

Additional Remarks

CAUTION: LOW FLYING MILITARY ACFT IN AREA; ARPT LCTD WITHIN A MOA.
FREQUENT PARACHUTE ACTIVITY TO TARGET 300' SE OF TERMINAL APRON.
AIRCRAFT IN VICINITY MONITOR 123.5.
FLY ONE MILE DOWN WIND LEG TO PREVENT CONFLICTS WITH PARACHUTE JUMPING ACTIVITY (DROP ZONE SOUTHEAST FROM RY).
AFTER HOURS SERVICE 910-578-4401.
MONITOR FREQ 123.5 FOR PARACHUTE JUMPING ACTIVITY.
FOR CD CTC WASHINGTON ARTCC AT 703-771-3587.
CTN DO NOT OVERFLY AIRPORT DUE TO PAJA.

Instrument Procedures

NOTE: All procedures below are presented as PDF files. If you need a reader for these files, you should download the free Adobe Reader.

NOT FOR NAVIGATION. Please procure official charts for flight.
FAA instrument procedures published for use from 26 March 2020 at 0901Z to 23 April 2020 at 0900Z.

 
IAPs - Instrument Approach Procedures
RNAV (GPS)-A   download (115KB)
VOR-A **CHANGED**   download (136KB)
NOTE: Special Take-Off Minimums/Departure Procedures apply   download (141KB)

Other nearby airports with instrument procedures:

KPOB - Pope Army Airfield (13 nm NE)
KFBG - Simmons Army Airfield (14 nm NE)
KHFF - Mackall Army Airfield (15 nm W)
KFAY - Fayetteville Regional Airport/Grannis Field (15 nm E)
KMEB - Laurinburg-Maxton Airport (16 nm SW)
KSOP - Moore County Airport (16 nm NW)
 
Loc | Ops | Rwys | IFR | FBO | Links
Com | Nav | Svcs | Stats | Notes
Area around 5W4 (P K Airpark)
 
Road maps at: MapQuest Bing Google
 
Aerial photo
WARNING: Photo may not be current or correct
Aerial photo of 5W4 (P K Airpark)
Photo by Kelvin Draughon
Photo taken 25-Dec-2016
looking northeast.

Do you have a better or more recent aerial photo of P K Airpark that you would like to share? If so, please send us your photo.

 
Sectional chart

 
Airport distance calculator
Flying to P K Airpark? Find the distance to fly.

From to 5W4

Sunrise and sunset
Times for 08-Apr-2020
 Local
(UTC-4)
 Zulu
(UTC)
Morning civil twilight06:2810:28
Sunrise06:5410:54
Sunset19:4323:43
Evening civil twilight20:0900:09

Current date and time
Zulu (UTC)  08-Apr-2020 07:47:06
Local (UTC-4)  08-Apr-2020 03:47:06
 
METAR
KPOB 
12nm NE 
080656Z AUTO 25009KT 7SM CLR 20/15 A2975 RMK AO2 SLP075 T01980150 $
KFBG 
15nm NE 
080730Z AUTO 24008KT 10SM CLR 20/16 A2973 RMK AO2 SLP068 $
KHFF 
15nm W 
080656Z AUTO 28005KT 10SM CLR 19/15 A2977 RMK AO2 SLP094 T01940154 $
KFAY 
15nm E 
080653Z 22010KT 10SM CLR 20/15 A2976 RMK AO2 SLP071 T02000150
KSOP 
16nm NW 
080656Z AUTO 23009KT 10SM CLR 19/15 A2977 RMK AO2 SLP082 T01940150
KMEB 
17nm SW 
080652Z AUTO 24008KT 10SM CLR 20/16 A2978 RMK AO2 SLP082 T02000156
TAF
KPOB 
12nm NE 
080100Z 0801/0907 23009KT 9999 SCT050 BKN200 QNH2981INS BECMG 0802/0803 23010G15KT 9999 SCT030 SCT100 510102 QNH2977INS BECMG 0805/0806 24012KT 9999 FEW050 520102 QNH2961INS BECMG 0820/0821 26012G18KT 9000 -SHRA VCTS BKN050CB QNH2958INS TX31/0820Z N17/0811Z
KFBG 
15nm NE 
071700Z 0717/0823 24006KT 9999 FEW050 SCT100 QNH2992INS BECMG 0717/0718 23010G15KT 9999 BKN050 BKN100 QNH2987INS BECMG 0720/0721 24010G20KT 6000 -SHRA BKN040 BKN100 QNH2988INS TEMPO 0721/0800 24015G25KT 4800 -TSRA BKN040CB BECMG 0802/0803 21006KT 9999 NSW SCT030 SCT100 WS020/26035KT QNH2980INS BECMG 0805/0806 22012KT 9999 FEW050 510102 QNH2965INS BECMG 0820/0821 25012G18KT 9000 -SHRA BKN050 QNH2964INS TX30/0718Z TN17/0811Z
KFAY 
15nm E 
080523Z 0806/0906 24008KT P6SM SCT070 BKN250 FM081400 25010G18KT P6SM BKN250 FM082200 27012G20KT P6SM VCTS SCT050CB BKN250 FM090500 25004KT P6SM BKN250
NOTAMs
Click for the latest NOTAMs
NOTAMs are issued by the DoD/FAA and will open in a separate window not controlled by AirNav.

 

 
 

FBO, Fuel Providers, and Aircraft Ground Support

  
 Business Name 
 
 Contact 
 
 Services / Description 
 
Fuel Prices
 
Comments
  
Skydive Paraclete XP 910-904-0000
no information available

If you are affiliated with Skydive Paraclete XP and would like to show here your services, contact info, web link, logo, and more, click here
100LL Jet A
FS $6.00 $5.50 
 Updated 17-Mar-2020
 
   write
FS=Full service
Update Fuel Prices
 

Aviation Businesses, Services, and Facilities

  
 Business Name 
 
 Contact 
 
 Services / Description 
 
Distance
 
Comments
  
Raeford Aviation 910-875-3261
no information available

If you are affiliated with Raeford Aviation and would like to show here your services, contact info, web link, logo, and more, click here
on airport  
   write
 

Where to Eat: Catering, Restaurants, Food shops

  
 Business Name 
 
 Contact 
 
 Services / Description 
 
Distance
 
Comments
  
Aviators Grill & Pub 910-904-6761
no information available

If you are affiliated with Aviators Grill & Pub and would like to show here your services, contact info, web link, logo, and more, click here
on airport  
   write
 

Would you like to see your business listed on this page?

 If your business provides an interesting product or service to pilots, flight crews, aircraft, or users of the P K Airpark, you should consider listing it here.  To start the listing process, click on the button below
 
Add a business
 

Other Pages about P K Airpark

Update a link
 
Copyright © AirNav, LLC. All rights reserved. Privacy Policy  Contact